EST,Max TemperatureF,Mean TemperatureF,Min TemperatureF,Max Dew PointF,MeanDew PointF,Min DewpointF,Max Humidity, Mean Humidity, Min Humidity, Max Sea Level PressureIn, Mean Sea Level PressureIn, Min Sea Level PressureIn, Max VisibilityMiles, Mean VisibilityMiles, Min VisibilityMiles, Max Wind SpeedMPH, Mean Wind SpeedMPH, Max Gust SpeedMPH,PrecipitationIn, CloudCover, Events, WindDirDegrees
2014-1-1,11,8,5,4,0,-2,79,68,59,30.45,30.39,30.30,10,9,2,15,10,23,0.00,8,Snow,67
2014-1-2,9,4,0,4,-1,-6,83,73,59,30.40,30.34,30.29,10,9,0,12,6,,0.00,7,Snow,98
2014-1-3,20,8,0,9,3,-6,84,74,62,30.35,30.16,29.80,10,6,2,22,8,33,0.00,7,Snow,161
2014-1-4,31,24,18,28,20,8,91,79,63,30.04,29.78,29.64,10,7,1,23,15,33,0.00,8,Snow,247
2014-1-5,22,18,13,15,11,7,80,73,66,30.14,30.04,29.84,10,9,2,22,9,32,0.00,8,Snow,353
2014-1-6,13,6,0,8,1,-5,82,76,69,29.87,29.80,29.75,10,2,0,25,19,36,0.00,8,Snow,309
2014-1-7,10,4,0,4,1,-4,83,80,77,30.14,29.96,29.84,3,1,0,33,23,41,0.00,8,Snow,271
2014-1-8,16,12,9,9,7,4,84,77,67,30.45,30.29,30.14,10,4,1,21,13,26,0.00,8,Snow,255
2014-1-9,18,14,10,9,8,6,86,75,66,30.50,30.40,30.22,10,9,3,12,6,17,0.00,7,Snow,165
2014-1-10,34,24,15,33,25,9,99,92,74,30.21,29.93,29.54,10,5,2,10,7,,0.00,8,Rain,145
2014-1-11,39,36,32,38,33,29,100,96,86,29.57,29.40,29.29,10,7,1,21,9,26,0.00,8,Rain-Snow,256
2014-1-12,40,36,32,30,26,23,88,70,51,29.75,29.63,29.54,10,10,10,21,14,25,0.00,5,,216
2014-1-13,39,36,31,34,31,23,99,82,69,29.64,29.52,29.44,10,10,3,16,8,20,0.00,8,Rain,235
2014-1-14,30,27,23,28,23,19,97,82,66,29.74,29.68,29.63,10,6,0,26,9,37,0.00,8,Snow,38
2014-1-15,23,20,16,22,14,8,96,80,69,29.91,29.83,29.65,10,6,1,26,18,38,0.00,8,Snow,298
2014-1-16,25,22,19,23,17,14,94,80,75,29.74,29.58,29.51,10,7,1,18,12,26,0.00,8,Snow,153
2014-1-17,29,26,22,26,22,16,96,88,75,29.85,29.71,29.57,10,6,1,14,4,20,0.00,8,Snow,344
2014-1-18,25,21,18,21,16,14,90,80,70,29.87,29.82,29.69,10,7,0,12,5,,0.00,8,Snow,340
2014-1-19,30,24,17,26,21,12,95,83,73,29.67,29.49,29.39,10,5,0,28,18,40,0.00,8,Snow,284
2014-1-20,17,12,7,11,3,-4,83,72,56,30.15,29.91,29.61,10,8,1,17,12,24,0.00,7,Snow,7
2014-1-21,6,-3,-13,0,-7,-18,80,74,64,30.26,30.21,30.15,10,9,2,15,6,21,0.00,6,Snow,123
2014-1-22,12,8,5,7,3,-3,87,79,69,30.14,29.95,29.82,10,5,1,15,9,18,0.00,8,Snow,129
2014-1-23,9,4,0,4,-1,-7,84,74,65,30.44,30.32,30.00,10,8,2,17,10,22,0.00,7,Snow,30
2014-1-24,25,14,4,24,13,0,96,85,69,30.29,29.72,29.24,10,2,0,32,15,39,0.00,8,Snow,223
2014-1-25,27,16,6,25,4,-7,94,67,52,29.66,29.45,29.19,10,3,0,28,20,38,0.00,8,Snow,310
2014-1-26,17,11,6,13,4,-4,88,77,58,29.65,29.44,29.24,10,4,0,33,12,39,0.00,8,Snow,214
2014-1-27,12,6,1,7,-2,-7,82,74,63,30.14,29.90,29.41,3,1,0,28,21,39,0.00,8,Snow,298
2014-1-28,9,6,3,5,1,-2,83,79,71,30.14,30.06,29.89,2,1,0,29,19,37,0.00,8,Snow,255
2014-1-29,21,14,9,11,7,5,87,78,70,29.96,29.91,29.84,10,5,0,28,18,34,0.00,6,Snow,238
2014-1-30,28,23,18,27,18,11,95,76,61,29.89,29.68,29.53,10,7,0,23,14,30,0.00,6,Snow,201
2014-1-31,17,14,12,13,10,7,84,77,73,30.10,30.01,29.78,10,8,2,15,10,21,0.00,7,Snow,252